User: anonymous   Login
Location: Bothwell
(42.3833°S, 147.0000°E)
Time: 01:12:10
(UTC+10:00)
Language:

EO-88 - Orbit

View from above orbital plane
View from above orbital plane
View from above satellite
View from above satellite

Ground track
Ground track

The orbit data is extracted from the following two-line orbital elements,

1 42017U 17008BX  22274.16033108  .00022673  00000-0  61134-3 0  9997
2 42017  97.2576 338.8985 0004020 207.6444 152.4587 15.37805160313307
Epoch (UTC): 01 October 2022 03:50:52
Eccentricity: 0.0004020
inclination: 97.2576°
perigee height: 450 km
apogee height: 455 km
right ascension of ascending node: 338.8985°
argument of perigee: 207.6444°
revolutions per day: 15.37805160
mean anomaly at epoch: 152.4587°
orbit number at epoch: 31330

The dashed part of the orbit path shows where the satellite is in the earth's shadow,  

DLR